QPF
0.00 0.00 0.00 0.00 0.00 0.00 0.00 0.00 0.00 0.00 0.00 0.00 0.00 0.00 0.00 0.00 0.00 0.00 0.00 0.00 0.00 0.00 0.01 0.01 0.01 0.01 0.01 0.01 0.02 0.02 0.02 0.02 0.02 0.01 0.01 0.01 0.01 0.02
0.00 0.00 0.00 0.00 0.00 0.00 0.00 0.00 0.00 0.00 0.00 0.00 0.00 0.00 0.00 0.00 0.00 0.00 0.00 0.00 0.00 0.00 0.01 0.01 0.01 0.01 0.01 0.02 0.02 0.02 0.02 0.03 0.03 0.03 0.03 0.03 0.03 0.03
0.00 0.00 0.00 0.00 0.00 0.00 0.00 0.00 0.00 0.00 0.00 0.00 0.00 0.00 0.00 0.00 0.00 0.00 0.00 0.00 0.00 0.00 0.00 0.01 0.01 0.01 0.02 0.02 0.02 0.02 0.03 0.03 0.04 0.04 0.04 0.04 0.04 0.04
0.00 0.00 0.00 0.00 0.00 0.00 0.00 0.00 0.00 0.00 0.00 0.00 0.00 0.00 0.00 0.00 0.00 0.00 0.00 0.00 0.00 0.00 0.00 0.01 0.01 0.01 0.02 0.02 0.02 0.02 0.03 0.03 0.03 0.03 0.03 0.04 0.04 0.05
0.00 0.00 0.00 0.00 0.00 0.00 0.00 0.00 0.00 0.00 0.00 0.01 0.00 0.00 0.00 0.00 0.00 0.00 0.00 0.00 0.00 0.00 0.00 0.00 0.01 0.01 0.01 0.02 0.02 0.02 0.02 0.02 0.03 0.03 0.03 0.02 0.03 0.03
0.00 0.00 0.00 0.00 0.00 0.00 0.00 0.00 0.00 0.00 0.01 0.01 0.01 0.01 0.01 0.00 0.00 0.00 0.00 0.00 0.00 0.00 0.00 0.00 0.00 0.01 0.01 0.01 0.01 0.01 0.01 0.02 0.02 0.03 0.03 0.03 0.02 0.02
0.00 0.00 0.00 0.00 0.00 0.01 0.01 0.01 0.01 0.01 0.01 0.02 0.02 0.02 0.01 0.01 0.01 0.01 0.01 0.00 0.00 0.00 0.00 0.00 0.00 0.00 0.00 0.00 0.00 0.00 0.00 0.01 0.01 0.02 0.02 0.02 0.02 0.02
0.00 0.00 0.00 0.00 0.00 0.00 0.01 0.01 0.01 0.02 0.02 0.02 0.02 0.02 0.01 0.01 0.01 0.01 0.01 0.02 0.02 0.00 0.00 0.00 0.00 0.00 0.00 0.00 0.00 0.00 0.01 0.01 0.01 0.02 0.02 0.02 0.02 0.03
0.00 0.00 0.00 0.00 0.00 0.00 0.00 0.00 0.00 0.01 0.01 0.02 0.02 0.02 0.01 0.01 0.01 0.02 0.02 0.03 0.03 0.01 0.02 0.01 0.00 0.00 0.00 0.00 0.00 0.00 0.01 0.02 0.02 0.02 0.03 0.03 0.03 0.03
0.00 0.00 0.00 0.00 0.00 0.00 0.00 0.00 0.00 0.00 0.01 0.01 0.01 0.01 0.01 0.01 0.02 0.04 0.06 0.06 0.04 0.01 0.01 0.02 0.01 0.00 0.00 0.00 0.00 0.00 0.01 0.01 0.02 0.02 0.03 0.03 0.03 0.03
0.00 0.00 0.00 0.00 0.00 0.01 0.01 0.01 0.01 0.01 0.01 0.01 0.02 0.03 0.03 0.04 0.05 0.06 0.08 0.08 0.06 0.02 0.01 0.02 0.01 0.00 0.00 0.00 0.00 0.00 0.00 0.01 0.01 0.02 0.02 0.03 0.03 0.03
0.00 0.00 0.00 0.01 0.01 0.02 0.02 0.02 0.02 0.01 0.01 0.01 0.01 0.01 0.01 0.01 0.01 0.02 0.03 0.05 0.05 0.04 0.01 0.01 0.01 0.01 0.02 0.00 0.00 0.00 0.00 0.00 0.01 0.01 0.02 0.03 0.03 0.03
0.00 0.00 0.00 0.01 0.01 0.02 0.03 0.03 0.03 0.03 0.03 0.03 0.03 0.02 0.01 0.00 0.00 0.00 0.01 0.02 0.05 0.05 0.02 0.03 0.03 0.03 0.03 0.02 0.00 0.00 0.00 0.00 0.00 0.01 0.01 0.02 0.02 0.03
0.01 0.00 0.00 0.01 0.02 0.03 0.03 0.03 0.04 0.04 0.03 0.02 0.01 0.01 0.00 0.00 0.00 0.00 0.00 0.01 0.02 0.02 0.02 0.03 0.06 0.04 0.04 0.03 0.01 0.00 0.00 0.00 0.01 0.01 0.01 0.02 0.02 0.02
0.01 0.01 0.01 0.02 0.03 0.02 0.02 0.02 0.02 0.02 0.02 0.02 0.01 0.01 0.00 0.00 0.00 0.00 0.00 0.00 0.01 0.01 0.01 0.02 0.03 0.04 0.05 0.04 0.02 0.01 0.01 0.00 0.00 0.01 0.01 0.01 0.01 0.01
0.01 0.01 0.01 0.02 0.01 0.01 0.01 0.01 0.01 0.01 0.01 0.02 0.01 0.01 0.00 0.00 0.00 0.00 0.01 0.01 0.01 0.01 0.01 0.01 0.02 0.03 0.04 0.03 0.03 0.02 0.01 0.01 0.00 0.00 0.00 0.00 0.00 0.00
0.03 0.04 0.03 0.02 0.01 0.01 0.01 0.01 0.01 0.01 0.01 0.01 0.01 0.01 0.01 0.00 0.00 0.01 0.01 0.02 0.02 0.01 0.01 0.01 0.01 0.02 0.03 0.03 0.04 0.02 0.01 0.01 0.00 0.01 0.01 0.00 0.00 0.00
0.04 0.04 0.03 0.02 0.02 0.01 0.01 0.01 0.01 0.01 0.01 0.01 0.01 0.01 0.01 0.01 0.01 0.01 0.01 0.02 0.02 0.01 0.01 0.01 0.02 0.03 0.03 0.03 0.02 0.02 0.01 0.01 0.01 0.01 0.01 0.01 0.01 0.00
0.02 0.02 0.01 0.01 0.01 0.02 0.02 0.01 0.01 0.01 0.01 0.02 0.02 0.01 0.01 0.01 0.01 0.01 0.01 0.01 0.01 0.01 0.01 0.01 0.02 0.03 0.03 0.02 0.01 0.00 0.01 0.01 0.01 0.01 0.01 0.01 0.01 0.01
0.00 0.01 0.01 0.01 0.01 0.01 0.01 0.01 0.01 0.01 0.01 0.01 0.02 0.01 0.02 0.02 0.02 0.01 0.01 0.01 0.01 0.01 0.01 0.01 0.02 0.02 0.02 0.02 0.01 0.01 0.00 0.01 0.01 0.01 0.01 0.01 0.01 0.01
0.00 0.01 0.01 0.01 0.01 0.01 0.01 0.01 0.01 0.01 0.01 0.02 0.02 0.01 0.02 0.02 0.02 0.01 0.01 0.01 0.02 0.02 0.01 0.01 0.01 0.02 0.03 0.04 0.03 0.01 0.01 0.01 0.01 0.01 0.01 0.01 0.01 0.01
0.01 0.01 0.01 0.01 0.01 0.01 0.01 0.01 0.01 0.01 0.01 0.01 0.01 0.01 0.02 0.02 0.02 0.02 0.02 0.02 0.02 0.01 0.01 0.01 0.02 0.03 0.04 0.03 0.01 0.01 0.01 0.01 0.01 0.01 0.01 0.01 0.01 0.01
0.01 0.01 0.01 0.01 0.01 0.01 0.01 0.02 0.02 0.01 0.01 0.01 0.01 0.01 0.02 0.02 0.02 0.02 0.02 0.02 0.02 0.02 0.02 0.02 0.02 0.02 0.02 0.01 0.01 0.01 0.01 0.01 0.01 0.02 0.02 0.01 0.00 0.00
MSLP
1022.68 1022.61 1022.54 1022.42 1022.24 1021.94 1021.52 1020.99 1020.37 1019.69 1019.00 1018.32 1017.69 1017.11 1016.58 1016.09 1015.63 1015.18 1014.73 1014.28 1013.83 1013.40 1013.00 1012.64 1012.31 1012.01 1011.73 1011.46 1011.20 1010.92 1010.65 1010.40 1010.17 1010.00 1009.89 1009.85 1009.86 1009.92
1022.20 1022.08 1021.97 1021.83 1021.62 1021.32 1020.91 1020.39 1019.80 1019.14 1018.47 1017.81 1017.18 1016.61 1016.08 1015.59 1015.12 1014.67 1014.21 1013.76 1013.30 1012.86 1012.44 1012.06 1011.70 1011.38 1011.07 1010.78 1010.49 1010.21 1009.93 1009.69 1009.48 1009.33 1009.25 1009.24 1009.30 1009.39
1021.63 1021.45 1021.29 1021.11 1020.87 1020.56 1020.16 1019.67 1019.10 1018.49 1017.86 1017.24 1016.65 1016.10 1015.59 1015.11 1014.64 1014.18 1013.72 1013.25 1012.78 1012.32 1011.88 1011.46 1011.08 1010.73 1010.41 1010.10 1009.80 1009.52 1009.26 1009.02 1008.84 1008.71 1008.65 1008.66 1008.72 1008.83
1020.98 1020.75 1020.54 1020.32 1020.06 1019.73 1019.34 1018.87 1018.35 1017.78 1017.21 1016.64 1016.11 1015.60 1015.12 1014.66 1014.20 1013.73 1013.26 1012.77 1012.27 1011.78 1011.31 1010.87 1010.47 1010.10 1009.76 1009.45 1009.16 1008.89 1008.64 1008.43 1008.26 1008.14 1008.09 1008.10 1008.16 1008.25
1020.29 1020.02 1019.77 1019.51 1019.22 1018.89 1018.50 1018.05 1017.57 1017.06 1016.55 1016.05 1015.56 1015.11 1014.67 1014.23 1013.78 1013.32 1012.83 1012.31 1011.79 1011.26 1010.76 1010.29 1009.86 1009.47 1009.13 1008.83 1008.55 1008.30 1008.08 1007.89 1007.74 1007.63 1007.56 1007.56 1007.59 1007.65
1019.57 1019.28 1018.99 1018.70 1018.39 1018.04 1017.65 1017.23 1016.78 1016.32 1015.87 1015.43 1015.01 1014.61 1014.22 1013.81 1013.38 1012.92 1012.42 1011.88 1011.32 1010.76 1010.22 1009.72 1009.26 1008.86 1008.51 1008.21 1007.95 1007.73 1007.54 1007.37 1007.23 1007.12 1007.05 1007.01 1007.00 1007.02
1018.83 1018.52 1018.21 1017.89 1017.56 1017.19 1016.80 1016.39 1015.97 1015.55 1015.15 1014.77 1014.42 1014.08 1013.74 1013.37 1012.97 1012.52 1012.02 1011.47 1010.88 1010.28 1009.70 1009.16 1008.67 1008.24 1007.88 1007.58 1007.34 1007.14 1006.97 1006.83 1006.70 1006.59 1006.51 1006.44 1006.39 1006.36
1018.06 1017.73 1017.40 1017.06 1016.70 1016.31 1015.91 1015.50 1015.10 1014.72 1014.36 1014.04 1013.75 1013.48 1013.20 1012.89 1012.53 1012.10 1011.61 1011.05 1010.45 1009.82 1009.20 1008.61 1008.08 1007.62 1007.24 1006.93 1006.69 1006.51 1006.36 1006.23 1006.12 1006.02 1005.92 1005.83 1005.76 1005.70
1017.24 1016.90 1016.55 1016.18 1015.79 1015.38 1014.96 1014.54 1014.15 1013.79 1013.48 1013.22 1012.99 1012.79 1012.57 1012.33 1012.03 1011.65 1011.19 1010.64 1010.03 1009.38 1008.72 1008.09 1007.51 1007.01 1006.59 1006.27 1006.02 1005.84 1005.70 1005.59 1005.49 1005.40 1005.31 1005.21 1005.13 1005.05
1016.36 1016.00 1015.62 1015.22 1014.80 1014.36 1013.93 1013.50 1013.12 1012.78 1012.51 1012.29 1012.13 1012.00 1011.88 1011.71 1011.48 1011.17 1010.75 1010.23 1009.63 1008.97 1008.28 1007.61 1006.99 1006.44 1005.98 1005.61 1005.35 1005.16 1005.02 1004.93 1004.85 1004.78 1004.70 1004.63 1004.55 1004.47
1015.42 1015.03 1014.63 1014.20 1013.75 1013.29 1012.84 1012.41 1012.03 1011.71 1011.48 1011.32 1011.22 1011.17 1011.12 1011.05 1010.90 1010.66 1010.30 1009.83 1009.25 1008.59 1007.89 1007.19 1006.52 1005.92 1005.42 1005.02 1004.72 1004.52 1004.39 1004.31 1004.25 1004.21 1004.17 1004.12 1004.07 1004.02
1014.42 1014.02 1013.59 1013.15 1012.68 1012.21 1011.74 1011.32 1010.95 1010.65 1010.45 1010.34 1010.31 1010.33 1010.36 1010.37 1010.31 1010.14 1009.86 1009.44 1008.90 1008.26 1007.56 1006.84 1006.14 1005.51 1004.96 1004.52 1004.20 1003.98 1003.85 1003.79 1003.76 1003.76 1003.76 1003.76 1003.75 1003.73
1013.40 1012.99 1012.56 1012.11 1011.65 1011.17 1010.72 1010.30 1009.94 1009.68 1009.51 1009.44 1009.46 1009.54 1009.64 1009.72 1009.73 1009.64 1009.42 1009.06 1008.57 1007.96 1007.28 1006.56 1005.85 1005.19 1004.62 1004.16 1003.82 1003.59 1003.47 1003.42 1003.42 1003.46 1003.51 1003.55 1003.58 1003.61
1012.40 1012.00 1011.59 1011.15 1010.71 1010.25 1009.82 1009.42 1009.09 1008.84 1008.70 1008.66 1008.71 1008.83 1008.97 1009.10 1009.17 1009.14 1008.99 1008.69 1008.25 1007.69 1007.04 1006.34 1005.64 1004.99 1004.41 1003.94 1003.59 1003.36 1003.24 1003.21 1003.24 1003.31 1003.40 1003.49 1003.56 1003.61
1011.45 1011.08 1010.70 1010.31 1009.90 1009.49 1009.08 1008.72 1008.41 1008.19 1008.06 1008.03 1008.09 1008.22 1008.38 1008.53 1008.64 1008.65 1008.55 1008.30 1007.92 1007.42 1006.82 1006.17 1005.51 1004.87 1004.31 1003.84 1003.50 1003.27 1003.16 1003.13 1003.19 1003.28 1003.40 1003.51 1003.61 1003.68
1010.56 1010.24 1009.92 1009.59 1009.24 1008.87 1008.52 1008.18 1007.90 1007.68 1007.56 1007.52 1007.57 1007.68 1007.84 1007.99 1008.10 1008.15 1008.08 1007.89 1007.58 1007.14 1006.61 1006.02 1005.41 1004.82 1004.29 1003.85 1003.51 1003.29 1003.17 1003.15 1003.20 1003.31 1003.43 1003.55 1003.66 1003.73
1009.74 1009.49 1009.24 1008.97 1008.68 1008.38 1008.07 1007.76 1007.50 1007.29 1007.15 1007.09 1007.10 1007.19 1007.31 1007.44 1007.56 1007.61 1007.58 1007.45 1007.20 1006.84 1006.40 1005.89 1005.35 1004.82 1004.33 1003.92 1003.59 1003.36 1003.24 1003.20 1003.23 1003.32 1003.43 1003.54 1003.63 1003.68
1008.97 1008.79 1008.61 1008.41 1008.18 1007.93 1007.66 1007.39 1007.13 1006.92 1006.76 1006.66 1006.64 1006.68 1006.76 1006.87 1006.97 1007.04 1007.04 1006.96 1006.79 1006.52 1006.17 1005.76 1005.31 1004.85 1004.41 1004.02 1003.70 1003.46 1003.31 1003.23 1003.22 1003.26 1003.33 1003.41 1003.47 1003.50
1008.22 1008.10 1007.97 1007.83 1007.65 1007.45 1007.21 1006.96 1006.72 1006.49 1006.31 1006.19 1006.12 1006.12 1006.17 1006.25 1006.34 1006.42 1006.46 1006.45 1006.36 1006.19 1005.95 1005.64 1005.28 1004.90 1004.52 1004.15 1003.83 1003.57 1003.37 1003.23 1003.16 1003.13 1003.14 1003.16 1003.19 1003.19
1007.45 1007.37 1007.28 1007.18 1007.04 1006.87 1006.66 1006.43 1006.19 1005.96 1005.76 1005.61 1005.52 1005.48 1005.50 1005.57 1005.67 1005.77 1005.86 1005.92 1005.92 1005.86 1005.73 1005.53 1005.28 1004.97 1004.64 1004.30 1003.97 1003.68 1003.42 1003.21 1003.06 1002.95 1002.89 1002.85 1002.83 1002.80
1006.64 1006.58 1006.51 1006.42 1006.31 1006.15 1005.96 1005.75 1005.52 1005.29 1005.09 1004.92 1004.81 1004.76 1004.77 1004.84 1004.96 1005.10 1005.25 1005.38 1005.48 1005.53 1005.52 1005.43 1005.28 1005.05 1004.77 1004.46 1004.12 1003.79 1003.48 1003.19 1002.96 1002.77 1002.63 1002.53 1002.47 1002.43
1005.78 1005.71 1005.64 1005.56 1005.45 1005.31 1005.13 1004.93 1004.72 1004.50 1004.30 1004.14 1004.03 1003.98 1003.99 1004.08 1004.21 1004.40 1004.61 1004.83 1005.02 1005.18 1005.28 1005.30 1005.25 1005.10 1004.89 1004.60 1004.27 1003.91 1003.55 1003.20 1002.89 1002.63 1002.42 1002.28 1002.18 1002.13
1004.88 1004.78 1004.69 1004.60 1004.49 1004.35 1004.19 1004.01 1003.81 1003.62 1003.44 1003.28 1003.18 1003.14 1003.17 1003.27 1003.44 1003.66 1003.93 1004.22 1004.50 1004.76 1004.96 1005.09 1005.13 1005.08 1004.93 1004.69 1004.37 1004.01 1003.63 1003.24 1002.88 1002.57 1002.32 1002.14 1002.03 1001.98
Thickness
5484 5479 5475 5471 5467 5462 5457 5451 5447 5452 5460 5459 5454 5452 5447 5444 5441 5440 5439 5437 5437 5437 5437 5437 5438 5438 5439 5440 5441 5443 5446 5448 5451 5455 5458 5463 5467 5471
5475 5470 5465 5461 5457 5451 5445 5440 5434 5432 5439 5443 5438 5434 5430 5427 5425 5423 5421 5419 5419 5418 5417 5417 5418 5418 5419 5420 5422 5424 5426 5429 5432 5435 5439 5443 5447 5451
5465 5460 5456 5451 5446 5440 5435 5429 5423 5418 5422 5430 5423 5419 5414 5410 5408 5404 5402 5401 5399 5398 5398 5399 5399 5400 5401 5402 5404 5406 5409 5411 5414 5418 5421 5425 5429 5433
5455 5450 5445 5441 5435 5429 5423 5418 5412 5407 5404 5410 5411 5405 5400 5394 5391 5388 5385 5383 5382 5381 5380 5381 5382 5383 5384 5386 5387 5390 5392 5395 5398 5401 5404 5408 5411 5414
5445 5440 5435 5429 5424 5418 5412 5406 5401 5396 5391 5391 5395 5390 5385 5379 5375 5372 5369 5366 5365 5364 5364 5365 5366 5367 5369 5371 5373 5375 5378 5380 5383 5386 5389 5392 5395 5399
5436 5430 5424 5418 5412 5407 5401 5395 5389 5384 5378 5375 5376 5374 5369 5363 5356 5353 5354 5351 5350 5349 5349 5350 5351 5353 5354 5357 5359 5362 5364 5366 5369 5372 5375 5378 5381 5384
5427 5421 5414 5408 5403 5397 5391 5385 5378 5372 5366 5361 5359 5357 5353 5345 5340 5337 5337 5338 5338 5335 5336 5337 5337 5339 5341 5343 5345 5348 5351 5354 5357 5360 5363 5366 5369 5372
5417 5411 5404 5397 5392 5387 5381 5375 5367 5358 5351 5345 5343 5339 5336 5329 5325 5323 5322 5323 5327 5326 5324 5327 5325 5328 5330 5331 5334 5337 5341 5344 5347 5350 5353 5356 5359 5363
5405 5399 5393 5386 5380 5372 5367 5361 5354 5345 5337 5331 5327 5324 5320 5317 5312 5311 5311 5311 5315 5315 5312 5318 5318 5319 5322 5324 5326 5330 5333 5336 5339 5342 5345 5348 5351 5354
5393 5385 5378 5372 5364 5356 5352 5347 5341 5333 5324 5317 5313 5312 5308 5305 5302 5302 5302 5304 5307 5305 5303 5307 5311 5312 5315 5317 5319 5322 5325 5329 5332 5335 5338 5340 5343 5346
5381 5372 5364 5358 5353 5345 5340 5335 5331 5324 5316 5310 5307 5304 5302 5299 5296 5294 5294 5293 5298 5299 5296 5297 5302 5304 5307 5310 5313 5315 5319 5322 5325 5328 5330 5333 5335 5338
5369 5361 5353 5346 5341 5334 5326 5320 5317 5313 5307 5303 5298 5294 5291 5288 5287 5285 5283 5282 5286 5289 5291 5289 5292 5292 5299 5303 5305 5306 5309 5313 5317 5319 5322 5325 5327 5330
5356 5349 5340 5333 5328 5322 5315 5308 5304 5302 5298 5293 5289 5285 5282 5279 5278 5276 5275 5274 5276 5280 5282 5281 5284 5284 5286 5293 5296 5298 5301 5304 5307 5310 5313 5316 5320 5323
5341 5335 5327 5322 5316 5310 5303 5298 5294 5291 5286 5282 5279 5277 5274 5272 5271 5270 5270 5270 5271 5273 5274 5274 5276 5278 5281 5284 5288 5291 5293 5296 5299 5302 5305 5308 5312 5316
5325 5321 5316 5309 5303 5296 5290 5286 5282 5277 5273 5271 5270 5269 5267 5266 5265 5264 5264 5265 5266 5268 5269 5270 5271 5273 5275 5278 5282 5284 5286 5290 5293 5295 5297 5300 5303 5306
5310 5306 5302 5295 5287 5282 5277 5272 5267 5264 5262 5262 5262 5261 5259 5258 5257 5258 5258 5259 5260 5263 5265 5266 5267 5268 5271 5273 5276 5279 5280 5282 5286 5288 5290 5293 5296 5299
5298 5294 5287 5279 5273 5268 5264 5261 5258 5256 5254 5254 5253 5253 5252 5253 5253 5253 5252 5253 5254 5257 5259 5260 5262 5264 5267 5269 5271 5275 5277 5278 5280 5282 5284 5287 5290 5294
5283 5277 5270 5264 5259 5256 5253 5252 5250 5248 5247 5246 5245 5245 5246 5247 5247 5248 5248 5248 5250 5252 5253 5254 5255 5258 5261 5264 5268 5271 5273 5274 5275 5277 5279 5281 5285 5288
5267 5261 5255 5251 5248 5245 5242 5242 5241 5241 5240 5239 5239 5239 5240 5241 5242 5243 5244 5244 5245 5247 5248 5248 5249 5251 5255 5259 5263 5267 5268 5269 5271 5272 5274 5276 5279 5283
5252 5248 5244 5241 5239 5236 5235 5234 5234 5234 5234 5233 5234 5234 5234 5236 5237 5238 5239 5239 5241 5242 5243 5243 5244 5247 5250 5254 5257 5261 5264 5265 5266 5267 5269 5271 5274 5278
5244 5240 5236 5234 5231 5229 5229 5228 5228 5228 5229 5229 5229 5229 5230 5231 5232 5234 5235 5237 5238 5238 5239 5240 5243 5245 5246 5247 5250 5254 5257 5261 5263 5263 5265 5266 5268 5272
5236 5233 5230 5228 5226 5224 5223 5223 5223 5224 5224 5225 5225 5226 5226 5227 5229 5230 5231 5232 5233 5234 5235 5237 5238 5239 5240 5243 5245 5247 5250 5253 5257 5260 5261 5264 5264 5267
5229 5227 5225 5223 5222 5220 5219 5219 5219 5220 5221 5221 5222 5223 5223 5224 5225 5226 5227 5228 5229 5230 5231 5231 5231 5232 5234 5237 5239 5241 5243 5246 5249 5252 5255 5259 5262 5266